[Iaude] MPEC H61: 2024 HG1 [a=1.11,e=0.61,i=24.1,H=21.7]
    mpec at cfa.harvard.edu 
    mpec at cfa.harvard.edu
       
    Mon Apr 22 11:19:03 EDT 2024
    
    
  
M.P.E.C. 2024-H61                                Issued 2024 April 22, 15:17 UT
     The Minor Planet Electronic Circulars contain information on unusual
         minor planets, routine data on comets and natural satellites,
         and occasional editorial announcements.  They are published
    on behalf of Division F of the International Astronomical Union by the
          Minor Planet Center, Smithsonian Astrophysical Observatory,
                          Cambridge, MA 02138, U.S.A.
			  
             Prepared using the Tamkin Foundation Computer Network
                              MPC at CFA.HARVARD.EDU
            URL https://www.minorplanetcenter.net/    ISSN 1523-6714
                                    2024 HG1                                    
Observations:
     K24H01G 1C2024 04 16.37879 16 06 59.67 +28 54 46.9                VEH061G96
     K24H01G 1C2024 04 16.38399 16 06 57.41 +28 54 58.0                VEH061G96
     K24H01G* C2024 04 18.42568315 52 56.006+30 02 08.16         20.84wXEH061F51
     K24H01G  C2024 04 18.43721315 52 51.303+30 02 28.52         20.65wXEH061F51
     K24H01G  C2024 04 18.44877815 52 46.563+30 02 49.11         20.89wXEH061F51
     K24H01G  C2024 04 18.46039615 52 41.789+30 03 09.52         21.12wXEH061F51
     K24H01G  C2024 04 18.62723315 51 33.526+30 07 52.71         20.95GVEH061F51
     K24H01G  C2024 04 18.62787415 51 33.267+30 07 53.72         20.44GVEH061F51
     K24H01G KC2024 04 19.01095915 49 05.02 +30 18 15.9          20.6 GXEH061I93
     K24H01G KC2024 04 19.02373215 48 59.99 +30 18 36.5          20.9 GXEH061I93
     K24H01G KC2024 04 19.03649415 48 54.88 +30 18 57.0          20.8 GXEH061I93
     K24H01G KC2024 04 19.29138 15 47 16.306+30 25 41.38         21.1 GVEH061H36
     K24H01G KC2024 04 19.31716 15 47 06.022+30 26 22.16         20.9 GVEH061H36
     K24H01G KC2024 04 20.47032 15 39 50.20 +30 53 49.6          21.6 RVEH061291
     K24H01G KC2024 04 20.47352 15 39 48.95 +30 53 54.0                VEH061291
     K24H01G KC2024 04 20.47671 15 39 47.80 +30 53 58.0          21.0 RVEH061291
     K24H01G KC2024 04 22.34884515 28 44.067+31 29 34.76         21.4 GVEH061H01
     K24H01G  C2024 04 22.35563815 28 41.675+31 29 41.40         21.6 GVEH061H01
     K24H01G  C2024 04 22.36136715 28 39.644+31 29 47.04         20.6 GVEH061H01
     K24H01G  C2024 04 22.37080715 28 36.327+31 29 56.19         21.0 GVEH061H01
Observer details:
291 LPL/Spacewatch II.  Observer A. F. Tubbiolo.  1.8-m f/2.7 reflector + CCD.
F51 Pan-STARRS 1, Haleakala.  Observers J. Herman, T. Lowe, P. Minguez, A.
    Schultz, I. Smith.  Measurers K. Chambers, T. de Boer, J. Fairlamb, H.
    Gao, M. Huber, C.-C. Lin, E. Magnier, Y. Ramanjooloo, R. Wainscoat, R.
    Weryk.  1.8-m Ritchey-Chretien + CCD.
G96 Mt. Lemmon Survey.  Observer G. J. Leonard.  Measurers B. Gray, D. Rankin,
    F. C. Shelly.  1.5-m reflector + 10K CCD.
H01 Magdalena Ridge Observatory, Socorro.  Observers W. H. Ryan, E. V. Ryan.
    Measurer W. H. Ryan.  2.4-m f/8.9 Ritchey-Chretien + CCD.
H36 Sandlot Observatory, Scranton.  Observer G. Hug.  0.56-m f/4.8 .56 meter
    Reflector + CCD.
I93 St Pardon de Conques.  Observer F. Losse.  0.40-m f/3.7 reflector + CCD.
Orbital elements:
2024 HG1                                                 Earth MOID = 0.0761 AU
Epoch 2024 Mar. 31.0 TT = JDT 2460400.5                 MPC                     
M  48.10003              (2000.0)            P               Q                  
n   0.84370185     Peri.  252.21503     +0.19762179     -0.97902690             
a   1.1092005      Node   186.97395     +0.98027680     +0.19745890             
e   0.6132693      Incl.   24.06825     +0.00174101     -0.05016282             
P   1.17           H   21.77          G   0.15           U   8                  
Residuals in seconds of arc
240416 G96  0.2-  0.2+    240418 F51  0.1+  0.1-    240420 291  0.5-  0.1+
240416 G96  0.1+  0.3-    240419 I93  0.5-  0.4+    240420 291  0.3+  0.0
240418 F51  0.1-  0.2+    240419 I93  0.4+  0.1+    240422 H01  0.0   0.0
240418 F51  0.1+  0.0     240419 I93  0.1+  0.2-    240422 H01  0.0   0.0
240418 F51  0.1+  0.1+    240419 H36  0.3+  0.2-    240422 H01  0.1-  0.0
240418 F51  0.0   0.1-    240419 H36  0.5-  0.1+    240422 H01  0.1+  0.0
240418 F51  0.1+  0.1-    240420 291  0.0   0.2-
Ephemeris:
2024 HG1                 a,e,i = 1.11, 0.61, 24                  q = 0.4290
Date    TT    R. A. (2000) Decl.     Delta      r    Elong.  Phase     V
2024 03 23    19 41 01.2 -07 13 24   0.2053  0.9371    67.4   100.9    21.9
...
2024 04 07    17 22 57.4 +19 35 11   0.2193  1.0990   111.1    58.2    20.8
...
2024 04 15    16 17 01.8 +27 59 41   0.2656  1.1770   125.3    44.1    20.9
...
2024 04 21    15 36 38.3 +31 05 00   0.3126  1.2317   130.7    38.2    21.2
2024 04 22    15 30 44.4 +31 23 44   0.3212  1.2406   131.2    37.5    21.3
2024 04 23    15 25 04.6 +31 39 37   0.3300  1.2493   131.7    37.0    21.3
...
2024 04 29    14 55 47.8 +32 25 52   0.3865  1.3000   132.6    34.8    21.7
...
2024 05 07    14 27 41.8 +31 58 50   0.4699  1.3631   130.7    34.1    22.2
...
2024 05 22    13 59 16.8 +29 01 21   0.6447  1.4679   123.2    35.2    23.1
A. U. Tomatic                (C) Copyright 2024 MPC           M.P.E.C. 2024-H61
    
    
More information about the Iaude
mailing list